Weather History for Alexandria, LA

Change the Weather History Date:

Monday, January 1, 2007

  Actual Average Record
Temperature  
Mean Temperature 45 °F 49 °F  
Max Temperature 54 °F 59 °F 81 °F (1952)
Min Temperature 36 °F 39 °F 17 °F (1964)
Degree Days  
Heating Degree Days 20 16  
Month to date heating degree days 20 16  
Since 1 July heating degree days 725 805  
Moisture  
Dew Point 34 °F    
Average Humidity 67    
Maximum Humidity 86    
Minimum Humidity 48    
Precipitation  
Precipitation 0.00 in 0.13 in 2.60 in (1911)
Month to date precipitation 0.00 0.13  
Year to date precipitation 0.00 0.13  
Snow  
Snow 0.00 in - 0.40 in (2001)
Month to date snowfall 0.0  
Since 1 July snowfall 0.0  
Snow Depth 0.00 in    
Sea Level Pressure  
Sea Level Pressure 30.26 in    
Wind  
Wind Speed 7 mph (NNW)    
Max Wind Speed 12 mph    
Max Gust Speed 16 mph    
Visibility 10 miles    
Events      
T = Trace of Precipitation, MM = Missing Value Source: NWS Daily Summary

Daily Weather History Graph

Daily Weather History Graph

Search for Another Location

Airport:

Trip Planner

Search our weather history database for the weather conditions in past years. The results will help you decide how hot, cold, wet, or windy it might be!

Date:

Astronomy

Jan. 01, 2007 Rise Set
Actual Time 7:09 AM CST 5:18 PM CST
Civil Twilight 6:42 AM CST 5:45 PM CST
Nautical Twilight 6:12 AM CST 6:15 PM CST
Astronomical Twilight 5:42 AM CST 6:44 PM CST
Moon 3:24 PM CST (1/1) 5:28 AM CST (1/1)
Length of Visible Light 11h 02m
Length of Day
10h 09m
Waxing Gibbous, 96% of the Moon is Illuminated
Jan 1
Waxing Gibbous
Jan 3
Full
Jan 11
Last Quarter
Jan 18
New
Jan 25
First Quarter

Hourly Weather History & Observations

Time (CST) Temp. Windchill Dew Point Humidity Pressure Visibility Wind Dir Wind Speed Gust Speed Precip Events Conditions
12:53 AM 45.0 °F 42.6 °F 37.0 °F 74% 30.16 in 10.0 mi WNW 4.6 mph - N/A   Clear
1:53 AM 44.1 °F 40.8 °F 37.0 °F 76% 30.17 in 10.0 mi WNW 5.8 mph - N/A   Clear
2:53 AM 43.0 °F 38.2 °F 37.0 °F 80% 30.17 in 10.0 mi NW 8.1 mph - N/A   Clear
3:53 AM 42.1 °F 37.7 °F 35.1 °F 76% 30.18 in 10.0 mi WNW 6.9 mph - N/A   Clear
4:53 AM 41.0 °F 37.1 °F 34.0 °F 76% 30.18 in 10.0 mi WNW 5.8 mph - N/A   Clear
5:53 AM 39.9 °F 33.9 °F 33.1 °F 77% 30.20 in 10.0 mi NNW 9.2 mph - N/A   Clear
6:53 AM 39.9 °F 34.5 °F 30.9 °F 70% 30.22 in 10.0 mi NW 8.1 mph - N/A   Clear
7:53 AM 39.9 °F 37.8 °F 33.1 °F 77% 30.26 in 10.0 mi NNW 3.5 mph - N/A   Clear
8:53 AM 42.1 °F 36.1 °F 32.0 °F 67% 30.27 in 10.0 mi NNW 10.4 mph - N/A   Clear
9:53 AM 45.0 °F 39.7 °F 32.0 °F 60% 30.29 in 10.0 mi North 10.4 mph - N/A   Clear
10:53 AM 46.0 °F 41.0 °F 33.1 °F 61% 30.29 in 10.0 mi NW 10.4 mph - N/A   Clear
11:53 AM 48.0 °F - 34.0 °F 58% 30.27 in 10.0 mi WNW 11.5 mph - N/A   Clear
12:53 PM 50.0 °F - 34.0 °F 54% 30.25 in 10.0 mi NNW 9.2 mph - N/A   Clear
1:53 PM 51.1 °F - 34.0 °F 52% 30.25 in 10.0 mi WNW 8.1 mph - N/A   Clear
2:53 PM 53.1 °F - 34.0 °F 48% 30.25 in 10.0 mi NNW 8.1 mph 16.1 mph N/A   Clear
3:53 PM 53.1 °F - 34.0 °F 48% 30.25 in 10.0 mi NNW 9.2 mph - N/A   Clear
4:53 PM 51.1 °F - 33.1 °F 50% 30.26 in 10.0 mi NNE 6.9 mph - N/A   Clear
5:53 PM 46.9 °F - 34.0 °F 61% 30.28 in 10.0 mi NNE 5.8 mph - N/A   Clear
6:53 PM 45.0 °F 41.2 °F 34.0 °F 65% 30.29 in 10.0 mi NNE 6.9 mph - N/A   Clear
7:53 PM 44.1 °F 42.5 °F 34.0 °F 68% 30.32 in 10.0 mi NNE 3.5 mph - N/A   Clear
8:53 PM 42.1 °F 39.2 °F 33.1 °F 70% 30.32 in 10.0 mi ENE 4.6 mph - N/A   Clear
9:53 PM 39.0 °F 34.8 °F 33.1 °F 79% 30.34 in 10.0 mi ENE 5.8 mph - N/A   Clear
10:53 PM 37.0 °F 34.5 °F 33.1 °F 86% 30.34 in 10.0 mi NNE 3.5 mph - N/A   Clear
11:53 PM 36.0 °F 33.3 °F 32.0 °F 86% 30.34 in 10.0 mi North 3.5 mph - N/A   Clear